Regional Weather Roundup
Issued by NWS

Home | Current Version | Previous Version | Graphics & Text | Print | Product List | Glossary On
Versions: 1 2 3 4 5 6 7 8 9 10 11 12 13 14 15 16 17 18 19 20 21 22 23 24 25 26 27 28 29 30 31 32 33 34 35 36 37 38 39 40 41 42 43 44 45 46 47 48 49 50
313
ASUS43 KOAX 240202
RWRNE

WEATHER ROUNDUP FOR NEBRASKA
NATIONAL WEATHER SERVICE OMAHA NE
900 PM CDT MON OCT 23 2017

NOTES: SATELLITE DATA IS BEING USED TO AUGMENT CLOUD COVER ABOVE
       12000 FEET.
       "FAIR" INDICATES FEW OR NO CLOUDS BELOW 12,000 FEET WITH NO
       SIGNIFICANT WEATHER AND/OR OBSTRUCTIONS TO VISIBILITY.


NEZ001>004-019>022-054>056-240300-
NEBRASKA PANHANDLE

CITY           SKY/WX    TMP DP  RH WIND       PRES   REMARKS
SCOTTSBLUFF    CLOUDY    44  18  35 NW8       30.45R
ALLIANCE       CLEAR     45  18  34 NW14      30.41R
CHADRON        CLEAR     43  17  35 NW10      30.42R
GORDON         FAIR      44  19  37 NW12      30.38R
KIMBALL        CLEAR     41  19  40 N7        30.46R
SIDNEY         CLEAR     42  19  39 NW10      30.45R
$$

NEZ057>060-069>072-079>082-240300-
SOUTHWEST NEBRASKA

CITY           SKY/WX    TMP DP  RH WIND       PRES   REMARKS
NORTH PLATTE   CLEAR     44  23  43 NW8       30.34R
IMPERIAL       CLEAR     48  18  30 NW13      30.39R
LEXINGTON      CLEAR     51  23  33 NW14      30.29R
MCCOOK         CLEAR     47  21  35 NW13      30.34R
OGALLALA       CLEAR     51  21  30 NW12      30.39R
$$

NEZ005>010-023>029-035>040-094-240300-
NORTH CENTRAL NEBRASKA

CITY           SKY/WX    TMP DP  RH WIND       PRES   REMARKS
VALENTINE      PTCLDY    51  22  31 NW13      30.29R
AINSWORTH      MOCLDY    50  26  38 NW13      30.26R
BROKEN BOW     CLEAR     51  24  34 NW17G25   30.26S
O`NEILL        MOCLDY    48  32  53 NW15      30.19S
ORD            PTCLDY    51  29  42 NW15G30   30.21F
THEDFORD       CLEAR     49  23  35 NW16G22   30.31S
$$

NEZ041-046>049-061>064-073>077-083>087-240300-
SOUTH CENTRAL NEBRASKA

CITY           SKY/WX    TMP DP  RH WIND       PRES   REMARKS
GRAND ISLAND   CLEAR     49  33  54 NW14      30.22R
AURORA         PTCLDY    51  31  46 NW12G20   30.20S
HASTINGS       CLEAR     46  30  53 NW7       30.24R
HEBRON         CLEAR     53  31  43 NW8G16    30.20S
HOLDREGE       CLEAR     47  29  50 NW10      30.27S
KEARNEY        CLEAR     46  29  51 NW12      30.26R
YORK           PTCLDY    50  32  50 NW14      30.19R
$$

NEZ011>018-030>034-042>045-240300-
NORTHEAST NEBRASKA

CITY           SKY/WX    TMP DP  RH WIND       PRES   REMARKS
NORFOLK        MOCLDY    50  34  54 W15       30.11F
ALBION         PTCLDY    46  35  66 NW9       30.17F
BLAIR          PTCLDY    51  33  49 NW13G18   30.06F
COLUMBUS       MOCLDY    47  38  71 W13       30.15R
FREMONT        CLOUDY    51  33  49 W12       30.10F
TEKAMAH        CLOUDY    52  32  46 NW12G18   30.06F
WAYNE          CLOUDY    52  28  40 NW12G21   30.08F
$$

NEZ050>053-065>068-078-088>093-240300-
SOUTHEAST NEBRASKA

CITY           SKY/WX    TMP DP  RH WIND       PRES   REMARKS
LINCOLN        MOCLDY    54  32  43 MISG      30.14F
OMAHA EPPLEY   PTCLDY    51  31  46 NW12      30.06F
BEATRICE       PTCLDY    51  33  50 NW13      30.15S
FALLS CITY     PTCLDY    53  30  41 NW13G21   30.09R
NEBRASKA CITY  PTCLDY    52  32  47 NW9       30.09F
PLATTSMOUTH    PTCLDY    51  32  48 NW9       30.07F
$$

NEZ044-045-051>053-067-240300-
OMAHA AREA

CITY           SKY/WX    TMP DP  RH WIND       PRES   REMARKS
OMAHA EPPLEY   PTCLDY    51  31  46 NW12      30.06F
BLAIR          PTCLDY    51  33  49 NW13G18   30.06F
FREMONT        CLOUDY    51  33  49 W12       30.10F
MILLARD        PTCLDY    54  33  44 NW13G21   30.08S
OFFUTT AFB     PTCLDY    50  32  50 NW9       30.06F
PLATTSMOUTH    PTCLDY    51  32  48 NW9       30.07F
WAHOO          FAIR      53  32  45 NW12G20   30.10F
$$




USA.gov is the U.S. government's official web portal to all federal, state and local government web resources and services.